[Date Prev][Date Next][Thread Prev][Thread Next] - [Date Index][Thread Index][Author Index]
2 Line ISS Keps 12-11
- Subject: [sarex] 2 Line ISS Keps 12-11
- From: "Dave Larsen PhD" <doc@xxxxxxxxxxx>
- Date: Sat, 10 Dec 2005 20:58:42 -0800
ISS
1 25544U 98067A 05344.88749140 .00013538 00000-0 10164-3 0 9217
2 25544 051.6445 075.2916 0009681 027.4480 080.0842 15.72903878403498
----
Via the sarex mailing list at AMSAT.ORG courtesy of AMSAT-NA.
To unsubscribe, send "unsubscribe sarex" to Majordomo@amsat.org
AMSAT Home